Погода Каменная Степь

Погода Каменная Степь : погода сейчас, прогноз погоды и архив. Всё, что Вы хотите узнать о погоде Каменная Степь!

Поиск расширенной информации на нашем сайте:

Другие новости

Новости СМИ2

Главная страница сайта

Новости сайта

03.07.2017

Напоминаем, что на нашем специализированном сайте Метеоцентр.Азия вы можете получить высокодетализированные автоматические прогнозы погоды по пунктам России, СНГ и мира в авиационном формате (включающие направление и скорость ветра, видимость, явления погоды, количество и форму облачности, нижнюю и верхнюю границу облачности).


Погода Каменная Степь - сегодня

Время (UTC), дата Ветер
(°,м/с) 
Видим.   Явления Облачность Т
(°С)
Тd
(°С)
f(%) Тe
(°С)
Pmin
(гПа)
dP
(гПа)
Po
(мм)
O2
(г/м3)
Тmin Tmax R s Состояние
почвы
03 15.10.18 250 (З) 4000 м  дымка  8/0 верхняя 
[Ci fib]
+8.4 +7.1 92 +9  1026.6  0.1  752  293  +8.1         
09 15.10.18 290 (З) 12000 м    ясно 
+16 +10.8 71 +18  1026.6  0.2  753  284           
12 15.10.18 290 (З) 13000 м    ясно 
+20.6 +10.5 52 +22  1026  -0.2  752  280           
18 15.10.18 270 (З) 10 км    ясно 
+14.6 +10.6 77 +18  1027.6  0.6  753  286           
21 15.10.18 тихо ()   4000 м  дымка  ясно 
+11.3 +10.3 94 +13  1028.1  0.2  753  290           
00 16.10.18 230 (ЮЗ) 4000 м  дымка  ясно 
+10 +9 93 +11  1028.4  0.2  754  291           
03 16.10.18 230 (ЮЗ) 4000 м  дымка  1/0 верхняя 
[Ci fib]
+7.6 +7 96 +9  1029.2  0.5  754  294  +7         
09 16.10.18 250 (З) 11000 м    10/1 600 м верхняя 
[Sc|Ci fib]
+17 +9.6 62 +19  1028.8  -0.1  754  284           
12 16.10.18 290 (З) 13000 м    9/0 верхняя 
[Cs]
+19.6 +9.5 52 +20  1027.5  -0.9  754  282           
18 16.10.18 230 (ЮЗ) 10 км    6/0 верхняя 
[Ci fib]
+10.6 +7.5 81 +12  1027.6  -0.1  753  291           
21 16.10.18 230 (ЮЗ) 10 км    ясно 
+8.7 +6.5 86 +10  1027.5  -0.3  753  293           
00 17.10.18 230 (ЮЗ) 10 км    ясно 
+9.5 +6.3 80 +10  1027.4  753  292           
06 17.10.18 250 (З) 11000 м    3/0 верхняя 
[Cs]
+10.8 +7 77 +11  1027.2  753  291  +6.6         
09 17.10.18 270 (З) 13000 м    3/0 верхняя 
[Cs]
+17 +8.7 58 +18  1026.8  753  284           
12 17.10.18 290 (З) 13000 м    3/0 верхняя 
[Cs]
+20.7 +7 41 +21  1025.1  -1.3  752  280           
18 17.10.18 230 (ЮЗ) 10 км    ясно 
+12.6 +7.3 70 +14  1025.8  0.2  752  288           
21 17.10.18 020 (С) 10 км    ясно 
+10.5 +6.4 76 +12  1026.2  0.3  752  291           
00 18.10.18 050 (СВ) 10 км    ясно 
+8.4 +5 79 +9  1026.5  752  293           
03 18.10.18 090 (В) 4000 м  дымка  3/0 верхняя 
[Ci fib]
+6.7 +5.1 90 +8  1026.3  -0.3  752  295  +6.3         
06 18.10.18 090 (В) 11000 м    ясно 
+12.1 +7.6 74 +13  1026.5  0.6  752  289  +5.3         
09 18.10.18 360 (С) 13000 м    ясно 
+16.9 +6.8 51 +18  1025.9  -0.2  752  284           
12 18.10.18 240 (ЮЗ) 13000 м    ясно 
+19.4 +7.4 46 +21  1024.5  -1.1  751  281           
15 18.10.18 тихо ()   10 км    ясно 
+13.4 +5 57 +13  1024.2  -0.9  751  288    +19.7       
18 18.10.18 120 (ЮВ) 10 км    4/0 верхняя 
[Cs]
+12 +6.2 68 +12  1024  -0.3  750  289           
21 18.10.18 160 (Ю) 10 км    8/0 верхняя 
[Cs]
+11.9 +5.7 66 +12  1023.9  -0.1  750  289           
Время (UTC), дата Ветер
(°,м/с) 
Видим.   Явления Облачность Т
(°С)
Тd
(°С)
f(%) Тe
(°С)
Pmin
(гПа)
dP
(гПа)
Po
(мм)
O2
(г/м3)
Тmin Tmax R s Состояние
почвы

Для получения пояснительной информации подведите курсор к названию столбца.

ПОГОДА Каменная Степь - архив

Всё, что Вы хотите узнать о погоде Каменная Степь - удобно и подробно!

Выберите нужную дату (начиная с 1 января 2015* года) и нажмите кнопку "Найти".
Будут отображены архивные сводки погоды по пункту Каменная Степь, начиная с указанной даты.


Отображать данные в формате CSV (для использования в таблицах Excel)


Внимание! Наш архив погоды предназначен исключительно для личного некоммерческого использования в познавательных целях. Если Вам необходимы официальные справки о состоянии погоды (для производственных, юридических, коммерческих и т.п. целей), обращайтесь в органы Росгидромета.

*Примечание: данная дата относится к архиву по метеостанциям СССР (Россия, СНГ, Балтия).
Архив по метеостанциям Зарубежной Европы и Азии (кроме Китая) хранится 10 дней, по другим регионам земного шара (Китай, Африка, Америка, Австралия, Океания) - 1 день.

Каменная Степь - район местоположения метеостанции


Название, широта, долгота, высота метеостанции:
Каменная Степь 51.1°ш. 40.7°д. 194 м над ур. моря [Российская Федерация]

Дополнительная информация

В oтличие oт бoльшинства пoгoдных сайтoв мы публикуем пoдрoбную метеoинфoрмацию в детальнoм прoфессиoнальнoм фoрмате.

Характеристики температуры и влажнoсти вoздуха измеряются на высoте 2 м в тени вдали oт зданий и деревьев.
Скoрoсть ветра измеряется на высoте 10 м (на урoвне рoста челoвека скoрoсть ветра ниже в 1.5-2 раза). Если метеoстанция нахoдится в гoрoде или в лесу, тo скoрoсть ветра занижена на 2-4 м/с пo сравнению с oткрытым местoм. Скoрoсть ветра над акватoриями крупных рек и oзёр, а также на вершинах хoлмoв на 2-5 м/с выше, чем в oбычных услoвиях.
Атмoсфернoе давление в разных тoчках местнoсти мoжет значительнo oтличаться oт давления на метеoстанции, в зависимoсти oт услoвий рельефа (при пoдъёме на 10 м давление пoнижается примернo на 1 мм рт.ст.).